Tracking 25656 objects as of 21-May-2022
HD Live streaming from Space Station
objects crossing your sky now

COSMOS 2251 DEB

Track COSMOS 2251 DEB now!
10-day predictions


NORAD ID: 34790
Int'l Code: 1993-036AAT
Perigee: 759.9 km
Apogee: 915.4 km
Inclination: 74.1 °
Period: 101.5 minutes
Semi major axis: 7208 km
RCS: 0.0196 m2 (small)
Launch date: June 16, 1993
Source: Commonwealth of Independent States (former USSR) (CIS)
Launch site: PLESETSK MISSILE AND SPACE COMPLEX (PKMTR)

Note: This is SATELLITE DEBRIS
aabbcc
Your satellite tracking list
Your tracking list is empty




NASA's NSSDC Master Catalog

Two Line Element Set (TLE):
1 34790U 93036AAT 22141.21355772  .00001738  00000-0  80476-3 0  9993
2 34790  74.0582  53.7055 0107899  72.0292  78.4880 14.18472460680839
Source of the keplerian elements: AFSPC